Flag for U.S.A. Weather past 2 weeks in Santa Clara, California, U.S.A.

73 °F

Passing clouds.

Feels Like: 77 °F
Forecast: 61 / 77 °F
Wind: 9 mph from Northwest

Location: San Jose International Airport

Current Time: Oct 9, 2015 at 7:13:06 PM

Latest Report: Oct 9, 2015 at 6:53 PM

Visibility: 10 mi

Pressure: 29.99 "Hg

Humidity: 53%

Dew point: 55 °F

Location of Santa ClaraLocation

Historic Weather in Santa Clara — Graph


Santa Clara temperature yesterday

Maximum temperature yesterday: 85 °F (at 2:53 PM)
Minimum temperature yesterday: 61 °F (at 3:53 AM)
Average temperature yesterday: 70 °F

Past Weeks' High & Low Weather Summary

High86 °F (Sep 25, 1:53 PM)96% (Oct 1, 3:53 AM)30.14 "Hg (Oct 1, 3:53 AM)
Low54 °F (Oct 3, 5:53 AM)23% (Sep 25, 1:53 PM)29.47 "Hg (Oct 3, 10:53 PM)
Average66 °F69%29.91 "Hg
* Reported Sep 24 5:53 PM — Oct 9 5:53 PM, Santa Clara, Weather by CustomWeather, © 2015

Note: Actual official high and low records may vary slightly from our data, if they occured in-between our weather recording intervals... More about our weather records


Santa Clara weather history for previous 24 hours

Time TempWeatherWind HumidityBarometerVisibility
5:53 PM
Fri, Oct 9
76 °FPassing clouds.12 mph47%29.99 "Hg10 mi
4:53 PM81 °FPassing clouds.12 mph30%29.99 "Hg10 mi
3:53 PM80 °FPassing clouds.15 mph28%30.01 "Hg10 mi
2:53 PM79 °FSunny.16 mph31%30.02 "Hg10 mi
1:53 PM79 °FSunny.17 mph36%30.03 "Hg10 mi
12:53 PM80 °FSunny.12 mph32%30.04 "Hg10 mi
11:53 AM81 °FSunny.5 mph32%30.05 "Hg10 mi
10:53 AM74 °FPassing clouds.No wind41%30.07 "Hg10 mi
9:53 AM70 °FPassing clouds.No wind55%30.09 "Hg10 mi
8:53 AM65 °FPassing clouds.3 mph70%30.09 "Hg10 mi
7:53 AM59 °FPassing clouds.No wind81%30.10 "Hg10 mi
6:53 AM59 °FPassing clouds.No wind84%30.11 "Hg10 mi
5:53 AM59 °FClear.No wind84%30.09 "Hg10 mi
4:53 AM60 °FClear.No wind86%30.08 "Hg10 mi
3:53 AM62 °FClear.6 mph86%30.07 "Hg10 mi
2:53 AM63 °FClear.5 mph81%30.06 "Hg10 mi
1:53 AM65 °FClear.3 mph76%30.05 "Hg10 mi
12:53 AM66 °FClear.No wind78%30.05 "Hg10 mi
11:53 PM
Thu, Oct 8
67 °FPassing clouds.No wind63%30.05 "Hg10 mi
10:53 PM68 °FPartly cloudy.No wind68%30.05 "Hg10 mi
9:53 PM69 °FPartly cloudy.3 mph59%30.05 "Hg10 mi
8:53 PM72 °FPartly cloudy.3 mph55%30.05 "Hg10 mi
7:53 PM73 °FPartly cloudy.No wind55%30.04 "Hg10 mi
Weather by CustomWeather, © 2015

See weather overviewHow to use our weather pages